[[{"header":{"parameterUnit":"m.s-1","parameterCategory":1,"la1":30.2991,"la2":30.254,"lo1":-89.0895,"lo2":-89.0444,"dy":0.0017,"dx":0.0017,"nx":28,"ny":28,"refTime":"2023-08-07T21:00:00:Z","depth":0,"parameterNumber":2,"parameterNumberName":"U-component_of_WINDS"},"data":[0,0,0,0,0,0,0,0,0,0,0,0,0,0,0,0,0,0,0,0,0,0,0,0,0,0,0,0,0,0,0,0,0,0,0,0,0,0,0,0,0,0,0,0,0,0,0,0,0,0,0,0,0,0,0,0,0,0,5.1229,5.123,0,5.1385,5.1387,5.1388,5.134,5.1336,5.1333,5.133,5.1491,5.1498,5.1505,0,0,0,0,0,0,0,0,0,0,0,0,0,5.0888,5.0894,5.1228,5.123,5.1232,5.1385,5.1387,5.1389,5.134,5.1336,5.1332,5.1328,5.1488,5.1497,5.1506,0,0,0,0,0,0,0,0,0,0,0,0,0,5.1039,5.0896,5.1228,5.1226,5.1228,5.1384,5.1387,5.1389,5.1341,5.1336,5.1331,5.1326,5.1485,5.1496,5.1507,5.1675,0,0,5.1541,5.1546,0,0,0,0,0,0,0,0,5.103,5.1052,5.1225,5.1227,5.1229,5.1338,5.1325,5.1485,5.1342,5.1298,5.133,5.1324,5.1444,5.1458,5.1498,5.1682,5.1689,5.1542,5.1548,5.1553,5.1556,0,0,0,0,0,0,0,5.102,5.1045,5.129,5.1227,5.123,5.1218,5.1234,5.1355,5.1397,5.1302,5.1298,5.1318,5.1444,5.1488,5.1502,5.1691,5.1541,5.1551,5.1558,5.1562,5.2019,5.2024,0,0,0,0,0,0,5.1008,5.1036,5.1285,5.1295,5.1115,5.1228,5.1246,5.1308,5.1395,5.1404,5.1322,5.1315,5.1471,5.1489,5.1507,5.1707,5.1553,5.1564,5.157,5.2013,5.202,5.2026,0,0,0,0,0,0,5.1001,5.1031,5.1279,5.1165,5.1195,5.1239,5.1309,5.1313,5.1357,5.1411,5.1418,5.1359,5.1468,5.1492,5.1633,5.1712,5.1568,5.1579,5.2007,5.2015,5.2023,5.211,0,0,0,0,0,0,5.0992,5.1029,5.1093,5.1167,5.1202,5.1402,5.1314,5.132,5.1376,5.1368,5.1447,5.1456,5.1466,5.1617,5.1644,5.1725,5.1587,5.2,5.2011,5.202,5.21,5.2121,5.2138,0,0,0,0,0,5.098,5.1112,5.1096,5.1127,5.1283,5.1407,5.1427,5.1436,5.1383,5.1447,5.1482,5.1453,5.17,5.1631,5.1662,5.1747,5.1995,5.2008,5.2019,5.2092,5.2117,5.2137,0,0,0,0,0,0,5.1047,5.1122,5.1105,5.1265,5.133,5.1399,5.148,5.1462,5.1544,5.1533,5.1541,5.1559,5.1704,5.174,5.1663,5.1913,5.1839,5.1858,5.1884,5.1908,5.1926,5.1914,5.1596,0,0,0,0,0,5.1081,5.1175,5.1235,5.1371,5.1404,5.1437,5.1491,5.1493,5.156,5.1587,5.1632,5.1699,5.1791,5.1852,5.194,5.2106,5.2121,5.218,5.2198,5.2213,5.2229,5.2318,5.2344,5.2066,5.2066,5.2066,0,0,5.1151,5.1203,5.1262,5.1386,5.1436,5.1533,5.146,5.1567,5.1639,5.1604,5.1739,5.1774,5.1849,5.2003,5.2073,5.2038,5.2309,5.2229,5.2241,5.2248,5.2333,5.2359,5.2383,5.2075,5.2073,5.2072,0,0,5.1328,5.1378,5.1495,5.1547,5.1624,5.1645,5.1673,5.1744,5.1766,5.1902,5.1877,5.1963,5.2122,5.2176,5.2224,5.2421,5.2397,5.245,5.2546,5.2633,5.2654,5.2674,5.2742,5.2767,5.2466,5.2466,5.2466,0,5.1405,5.1551,5.1558,5.1666,5.172,5.1693,5.1811,5.1861,5.1963,5.2001,5.196,5.2158,5.2207,5.2372,5.242,5.246,5.2492,5.244,5.2651,5.267,5.2688,5.2753,5.2779,5.2472,5.2471,5.247,5.247,0,5.1641,5.1743,5.1828,5.1926,5.1991,5.2104,5.2127,5.2191,5.2187,5.2212,5.235,5.2408,5.2506,5.2546,5.2543,5.2711,5.2686,5.2648,5.2573,5.272,5.2782,5.2807,5.248,5.2478,5.2476,5.2475,0,0,5.1865,5.1965,5.1996,5.2039,5.2122,5.22,5.2312,5.2407,5.2461,5.2533,5.2625,5.276,5.2725,5.278,5.2783,5.2859,5.3009,5.2812,5.2814,5.2845,5.3195,5.3221,5.325,5.2994,5.2999,5.3003,5.3188,0,5.2048,5.2243,5.2252,5.2429,5.2522,5.2497,5.2593,5.2654,5.2681,5.2763,5.2792,5.2887,5.2834,5.2867,5.2941,5.2975,5.3079,5.2962,5.3079,5.3083,5.3059,5.3282,5.3311,5.3483,5.3212,5.3216,5.3219,0,5.2287,5.2364,5.255,5.2618,5.2657,5.2744,5.2831,5.2911,5.2979,5.2993,5.3054,5.3046,5.3159,5.3082,5.3237,5.3157,5.3206,5.323,5.3236,5.3246,5.3159,5.3296,5.3538,5.3563,5.3257,5.3254,5.3251,0,5.2429,5.258,5.271,5.2749,5.2831,5.2892,5.293,5.2993,5.3049,5.3126,5.3162,5.3252,5.33,5.337,5.3385,5.3328,5.354,5.3465,5.3554,5.3553,5.3598,5.3595,5.3849,5.3633,5.3633,5.3632,5.3632,0,5.263,5.2745,5.2775,5.2855,5.2982,5.2992,5.3117,5.315,5.3207,5.3292,5.3277,5.3357,5.3374,5.3459,5.3472,5.3597,5.362,5.3634,5.3635,5.3634,5.3632,5.3665,5.3652,5.3639,5.3638,5.3636,5.3635,0,5.281,5.2835,5.2975,5.3041,5.3061,5.3151,5.3208,5.3285,5.3309,5.3417,5.3443,5.3481,5.3579,5.3602,5.372,5.3729,5.3877,5.3868,5.3853,5.3852,5.3939,5.3929,5.4221,5.4259,5.402,5.4023,5.4025,0,5.2936,5.3024,5.3099,5.3155,5.3195,5.3286,5.3342,5.3355,5.3415,5.3498,5.3565,5.3661,5.3738,5.3896,5.3934,5.4023,5.4015,5.4111,5.4028,5.4023,5.4014,5.4008,5.4016,5.4126,5.4129,5.4131,5.4133,0,5.3157,5.3165,5.3247,5.3334,5.3403,5.3472,5.3538,5.3585,5.3606,5.3674,5.3774,5.3834,5.3952,5.4048,5.4137,5.4175,5.4158,5.4159,5.4184,5.4182,5.4169,5.4175,5.3894,5.4152,5.415,5.4148,5.4147,5.4147,5.3313,5.3388,5.3453,5.3545,5.3596,5.3657,5.3732,5.3765,5.3848,5.3945,5.3948,5.4056,5.412,5.4238,5.4282,5.4366,5.4336,5.4373,5.4382,5.439,5.4397,5.4157,5.4383,5.4382,5.4382,5.4381,5.4381,0,5.3531,5.3571,5.3656,5.3748,5.382,5.3797,5.3868,5.393,5.4025,5.4087,5.4163,5.4277,5.4368,5.4413,5.4504,5.4563,5.4557,5.4586,5.4581,5.459,5.4419,5.4387,5.4589,5.4589,5.4589,5.4589,5.4589,5.4589,5.3653,5.3779,5.3794,5.3944,5.3983,5.4088,5.4131,5.4187,5.4236,5.4364,5.4439,5.4468,5.4523,5.4617,5.47,5.4711,5.4744,5.4777,5.4784,5.4623,5.4602,5.4582,5.4552,5.4785,5.4785,5.4946,5.4948,5.4949]},{"header":{"parameterUnit":"m.s-1","parameterCategory":1,"la1":30.2991,"la2":30.254,"lo1":-89.0895,"lo2":-89.0444,"dy":0.0017,"dx":0.0017,"nx":28,"ny":28,"refTime":"2023-08-07T21:00:00:Z","depth":0,"parameterNumber":3,"parameterNumberName":"V-component_of_WINDS"},"data":[0,0,0,0,0,0,0,0,0,0,0,0,0,0,0,0,0,0,0,0,0,0,0,0,0,0,0,0,0,0,0,0,0,0,0,0,0,0,0,0,0,0,0,0,0,0,0,0,0,0,0,0,0,0,0,0,0,0,1.3207,1.3208,0,1.3297,1.3298,1.3299,1.3294,1.3293,1.3292,1.3291,1.3385,1.3389,1.3392,0,0,0,0,0,0,0,0,0,0,0,0,0,1.3032,1.3035,1.3207,1.3208,1.3209,1.3297,1.3298,1.3299,1.3295,1.3293,1.3291,1.329,1.3384,1.3388,1.3393,0,0,0,0,0,0,0,0,0,0,0,0,0,1.3114,1.3036,1.3207,1.3217,1.3219,1.3297,1.3298,1.33,1.3295,1.3293,1.3291,1.3289,1.3382,1.3388,1.3393,1.3467,0,0,1.341,1.3413,0,0,0,0,0,0,0,0,1.3109,1.312,1.3215,1.3217,1.3219,1.3282,1.3271,1.3356,1.3295,1.3266,1.3291,1.3288,1.3353,1.3361,1.3382,1.3471,1.3475,1.3411,1.3414,1.3417,1.3418,0,0,0,0,0,0,0,1.3103,1.3116,1.3243,1.3216,1.3219,1.3218,1.3227,1.3287,1.3319,1.3269,1.3269,1.3279,1.3353,1.3376,1.3384,1.3477,1.3411,1.3416,1.3419,1.3421,1.3631,1.3633,0,0,0,0,0,0,1.3095,1.3112,1.324,1.3245,1.3158,1.3223,1.3233,1.3264,1.3319,1.3325,1.3281,1.3279,1.3368,1.3378,1.3387,1.3477,1.3417,1.3422,1.3425,1.3629,1.3632,1.3634,0,0,0,0,0,0,1.3091,1.3107,1.3236,1.3179,1.3195,1.3228,1.3262,1.3267,1.329,1.3328,1.3334,1.3298,1.3367,1.3379,1.3447,1.348,1.3424,1.343,1.3626,1.363,1.3633,1.3657,0,0,0,0,0,0,1.3086,1.3105,1.3133,1.3179,1.3198,1.3294,1.3265,1.327,1.3299,1.3297,1.3346,1.3352,1.3366,1.3439,1.3453,1.3487,1.3434,1.3623,1.3628,1.3632,1.3654,1.3661,1.3668,0,0,0,0,0,1.308,1.3137,1.3135,1.315,1.3234,1.3296,1.3307,1.3321,1.3302,1.3331,1.3355,1.335,1.3474,1.3446,1.3461,1.3498,1.3621,1.3627,1.3631,1.3651,1.366,1.3667,0,0,0,0,0,0,1.3096,1.3144,1.3141,1.3215,1.3251,1.3295,1.3332,1.3331,1.3374,1.337,1.3387,1.3398,1.3466,1.3489,1.3456,1.3572,1.3545,1.3554,1.3555,1.3564,1.357,1.3564,1.3439,0,0,0,0,0,1.3107,1.3154,1.3193,1.3254,1.3272,1.3299,1.3327,1.3334,1.3373,1.3389,1.3418,1.3456,1.3504,1.3535,1.3581,1.3657,1.3667,1.369,1.3696,1.3702,1.3709,1.3751,1.3761,1.365,1.365,1.365,0,0,1.3133,1.3165,1.3193,1.3258,1.3287,1.3335,1.3312,1.3364,1.3399,1.3397,1.3462,1.3485,1.3529,1.3601,1.3634,1.3622,1.3742,1.3708,1.3712,1.3717,1.3757,1.3768,1.3777,1.3654,1.3653,1.3652,0,0,1.3203,1.3232,1.3286,1.3315,1.3359,1.3376,1.3389,1.3433,1.3448,1.3513,1.3512,1.3555,1.3637,1.3668,1.3694,1.3775,1.3773,1.379,1.3826,1.3867,1.3875,1.3883,1.3913,1.3923,1.3797,1.3797,1.3797,0,1.3229,1.3301,1.3314,1.3366,1.3394,1.3393,1.3448,1.3476,1.3533,1.3553,1.3538,1.364,1.367,1.3749,1.3769,1.379,1.3806,1.3785,1.3873,1.3881,1.3889,1.3917,1.3928,1.3799,1.3798,1.3798,1.3798,0,1.3331,1.338,1.3419,1.3473,1.3506,1.3559,1.358,1.3612,1.3617,1.3636,1.3702,1.3737,1.379,1.3809,1.3815,1.3889,1.388,1.3869,1.3843,1.3901,1.3927,1.3938,1.3801,1.38,1.38,1.38,0,0,1.3415,1.3475,1.3489,1.3513,1.3561,1.36,1.3653,1.3703,1.3731,1.377,1.3815,1.3883,1.3873,1.3903,1.3912,1.3947,1.4009,1.3932,1.3933,1.3945,1.4094,1.4103,1.4115,1.4008,1.401,1.4011,1.4091,0,1.3491,1.3584,1.3597,1.368,1.3726,1.3725,1.3771,1.3806,1.3824,1.3866,1.3887,1.3935,1.3918,1.3936,1.3971,1.3994,1.404,1.3989,1.4051,1.4053,1.404,1.4129,1.4139,1.4212,1.4101,1.4103,1.4104,0,1.3592,1.3633,1.372,1.3761,1.3781,1.3822,1.387,1.391,1.3949,1.396,1.3993,1.3997,1.4052,1.4023,1.4099,1.4064,1.409,1.4105,1.4109,1.4116,1.4082,1.4139,1.4236,1.4247,1.4121,1.4119,1.4118,0,1.3645,1.3722,1.3784,1.3805,1.3855,1.3884,1.3906,1.3943,1.3972,1.4014,1.4033,1.408,1.4107,1.4144,1.416,1.4137,1.4236,1.4208,1.4247,1.4247,1.4269,1.4268,1.4372,1.4284,1.4284,1.4284,1.4284,0,1.3729,1.3782,1.3808,1.3847,1.3907,1.3921,1.398,1.4001,1.4034,1.4077,1.4079,1.4119,1.4138,1.4181,1.4195,1.4256,1.4268,1.4279,1.4282,1.4279,1.4278,1.4297,1.4293,1.4287,1.4286,1.4286,1.4285,0,1.3799,1.3818,1.3886,1.3927,1.3938,1.3981,1.4016,1.4053,1.4071,1.4125,1.4139,1.4167,1.4218,1.4238,1.43,1.4309,1.438,1.4379,1.4367,1.4368,1.4406,1.4402,1.4527,1.4544,1.4445,1.4445,1.4446,0,1.3851,1.3892,1.3937,1.3966,1.3989,1.4034,1.4064,1.4079,1.411,1.4158,1.4189,1.424,1.4281,1.4362,1.4389,1.4436,1.4437,1.4477,1.4444,1.444,1.4438,1.4436,1.444,1.4483,1.4484,1.4485,1.4486,0,1.3943,1.395,1.3993,1.4039,1.4074,1.4111,1.4148,1.4171,1.4191,1.4226,1.4278,1.431,1.4373,1.4423,1.4472,1.4495,1.4494,1.4496,1.4507,1.4505,1.4497,1.4502,1.4384,1.4493,1.4492,1.4492,1.4491,1.4491,1.4006,1.4043,1.408,1.4127,1.4156,1.4189,1.4226,1.4248,1.4291,1.4343,1.4349,1.4405,1.4443,1.4508,1.4533,1.4577,1.4566,1.4583,1.4588,1.4592,1.4595,1.4489,1.4586,1.4585,1.4585,1.4585,1.4585,0,1.4098,1.4122,1.4165,1.4215,1.4252,1.4247,1.4287,1.4318,1.4367,1.4402,1.4442,1.4501,1.4549,1.4579,1.4628,1.4657,1.4658,1.467,1.4668,1.4673,1.4601,1.4586,1.4668,1.4668,1.4668,1.4668,1.4668,1.4668,1.415,1.4212,1.4223,1.4299,1.4322,1.4376,1.4399,1.443,1.4458,1.4523,1.4563,1.4582,1.4615,1.4666,1.471,1.4718,1.4736,1.4748,1.4755,1.4687,1.4679,1.467,1.4657,1.4752,1.4752,1.4824,1.4825,1.4825]}]]